Flag for U.S.A. Weather past 2 weeks in Omaha, Nebraska, U.S.A.

Now
10 °F

Clear.


Feels Like: 10 °F
Forecast: 4 / 31 °F
Wind: No wind

Location: Millard Airport

Current Time: Mar 5, 2015 at 1:25:43 AM

Latest Report: Mar 5, 2015 at 12:55 AM


Visibility: 10 mi

Pressure: 30.48 "Hg

Humidity: 57%

Dew point: -3 °F

Location of OmahaLocation

Historic Weather in Omaha — Graph

°F

Omaha temperature yesterday

Maximum temperature yesterday: 31 °F (at 1:15 PM)
Minimum temperature yesterday: 11 °F (at 11:55 PM)
Average temperature yesterday: 21 °F

Past Weeks' High & Low Weather Summary

 TemperatureHumidityPressure
High47 °F (Feb 24, 2:55 PM)97% (Mar 3, 7:15 AM)30.81 "Hg (Mar 3, 7:15 AM)
Low0 °F (Feb 27, 5:35 AM)24% (Feb 23, 4:15 PM)29.66 "Hg (Mar 3, 5:55 AM)
Average21 °F61%30.27 "Hg
* Reported Feb 18 12:15 AM — Mar 5 12:15 AM, Omaha, Weather by CustomWeather, © 2015

Note: Actual official high and low records may vary slightly from our data, if they occured in-between our weather recording intervals... More about our weather records

Advertising

Omaha weather history for previous 24 hours

 ConditionsComfort  
Time TempWeatherWind HumidityBarometerVisibility
12:15 AM
Thu, Mar 5
11 °FClear.No wind55%30.48 "Hg10 mi
11:55 PM
Wed, Mar 4
11 °FClear.No wind54%30.48 "Hg10 mi
11:15 PM12 °FClear.No wind52%30.49 "Hg10 mi
10:55 PM12 °FClear.3 mph51%30.49 "Hg10 mi
10:15 PM13 °FClear.5 mph49%30.48 "Hg10 mi
9:35 PM15 °FClear.8 mph47%30.45 "Hg10 mi
9:15 PM16 °FClear.7 mph45%30.43 "Hg10 mi
7:55 PM20 °FClear.5 mph38%30.41 "Hg10 mi
7:35 PM20 °FClear.8 mph37%30.40 "Hg10 mi
7:15 PM21 °FClear.8 mph35%30.39 "Hg10 mi
6:55 PM22 °FClear.7 mph33%30.38 "Hg10 mi
6:35 PM23 °FClear.6 mph31%30.37 "Hg10 mi
6:15 PM24 °FSunny.10 mph30%30.34 "Hg10 mi
5:55 PM25 °FSunny.10 mph29%30.34 "Hg10 mi
5:35 PM26 °FSunny.8 mph29%30.33 "Hg10 mi
5:15 PM26 °FSunny.14 mph28%30.31 "Hg10 mi
4:35 PM28 °FSunny.15 mph26%30.30 "Hg10 mi
4:15 PM29 °FSunny.15 mph25%30.31 "Hg10 mi
3:15 PM29 °FSunny.12 mph24%30.29 "Hg10 mi
2:55 PM30 °FSunny.15 mph25%30.29 "Hg10 mi
2:35 PM30 °FSunny.17 mph24%30.29 "Hg10 mi
2:15 PM30 °FSunny.16 mph25%30.28 "Hg10 mi
1:35 PM29 °FSunny.21 mph26%30.28 "Hg10 mi
1:15 PM31 °FScattered clouds.20 mph27%30.29 "Hg10 mi
12:55 PM30 °FScattered clouds.20 mph27%30.30 "Hg10 mi
12:35 PM30 °FScattered clouds.14 mph29%30.29 "Hg10 mi
12:15 PM29 °FScattered clouds.20 mph29%30.28 "Hg10 mi
11:55 AM31 °FScattered clouds.16 mph31%30.29 "Hg10 mi
11:35 AM29 °FSunny.13 mph40%30.29 "Hg10 mi
11:15 AM27 °FSunny.16 mph46%30.30 "Hg10 mi
10:55 AM26 °FSunny.10 mph45%30.30 "Hg10 mi
10:35 AM26 °FSunny.10 mph48%30.30 "Hg10 mi
10:15 AM24 °FSunny.13 mph47%30.31 "Hg10 mi
9:55 AM23 °FSunny.7 mph51%30.31 "Hg10 mi
9:35 AM22 °FSunny.5 mph57%30.31 "Hg10 mi
9:15 AM21 °FSunny.No wind57%30.31 "Hg10 mi
8:55 AM20 °FSunny.3 mph57%30.30 "Hg10 mi
8:35 AM19 °FSunny.3 mph58%30.30 "Hg10 mi
8:15 AM19 °FScattered clouds.No wind63%30.29 "Hg10 mi
7:55 AM18 °FSunny.No wind71%30.28 "Hg10 mi
7:35 AM17 °FScattered clouds.No wind72%30.27 "Hg10 mi
7:15 AM16 °FScattered clouds.No wind76%30.26 "Hg10 mi
6:55 AM16 °FScattered clouds.No wind76%30.26 "Hg10 mi
6:35 AM17 °FPassing clouds.No wind75%30.26 "Hg10 mi
6:15 AM17 °FPassing clouds.No wind73%30.26 "Hg10 mi
5:55 AM17 °FPassing clouds.No wind69%30.25 "Hg10 mi
5:15 AM16 °FClear.3 mph74%30.23 "Hg10 mi
4:55 AM16 °FClear.No wind76%30.21 "Hg10 mi
4:35 AM16 °FClear.No wind78%30.21 "Hg10 mi
4:15 AM16 °FClear.3 mph78%30.20 "Hg10 mi
3:55 AM17 °FPassing clouds.5 mph76%30.20 "Hg10 mi
3:35 AM17 °FOvercast.6 mph77%30.19 "Hg10 mi
3:15 AM17 °FOvercast.5 mph77%30.19 "Hg7 mi
2:55 AM17 °FLight snow. Overcast.No wind80%30.19 "Hg2 mi
2:35 AM18 °FLight snow. Overcast.5 mph79%30.20 "Hg3 mi
2:15 AM18 °FLight snow. Overcast.3 mph78%30.20 "Hg4 mi
1:55 AM18 °FLight snow. Overcast.3 mph78%30.20 "Hg3 mi
1:15 AM19 °FLight snow. Mostly cloudy.8 mph62%30.19 "Hg4 mi
Weather by CustomWeather, © 2015

See weather overviewHow to use our weather pages